C/2019 L3 ( ATLAS )

Japanese version
Home page
Updated on September 17, 2019

---------------------------------------------------------------------

* Profile

Discovery Date June 10, 2019
Magnitude 18.1 mag
Discoverer Asteroid Terrestrial-Impact Last Alert System (ATLAS) search program

* Pictures

* Orbital Elements

Epoch 2022 Jan. 21.0 TT = JDT 2459600.5
T 2022 Jan.  9.29436 TT                                 Williams
q   3.5532966            (2000.0)            P               Q
z  -0.0006078      Peri.  171.60987     -0.26052728     -0.66630897
 +/-0.0000725      Node   290.79111     +0.83675311     +0.20518158
e   1.0021597      Incl.   48.36133     +0.48163239     -0.71689112
From 261 observations 2019 June 10-Aug. 20, mean residual 0".4.

* Finding Charts

* Magnitudes Graph

        m1 = 4.5 + 5 log d + 10.0 log r

---------------------------------------------------------------------

The orbital elements are published on M.P.E.C. 2019-Q135.
The charts are made with StellaNavigator Ver.10 (AstroArts).
The magnitudes graphs are made with Comet for Windows.

---------------------------------------------------------------------

Copyright(C) Seiichi Yoshida (comet@aerith.net). All rights reserved.